This demonstration page uses our WeatherBlox Daily Observations layout. Learn more.

40.92945, -100.16068

Hourly Observations for January 29, 2017

Temp ( °F °C ) Dew Point ( °F °C ) Humidity (%) Winds ( mph kmh ) Pressure ( in mb ) Visibility ( mi km ) Precip ( " mm )
12:15 am 00:15 Mostly Cloudy 34 1 28 -2.4 78 78 NW 10 17 30.21 1023 10 16.0934 0 0
12:35 am 00:35 Partly Cloudy 35 1.5 28 -2.5 75 75 NW 10 17 30.21 1023 10 16.0934 0 0
12:55 am 00:55 Clear 34 1.3 27 -2.7 75 75 NW 13 20 30.21 1023 10 16.0934 0 0
1:15 am 01:15 Clear 33 0.6 27 -2.8 78 78 WNW 12 19 30.21 1023 10 16.0934 0 0
1:35 am 01:35 Clear 33 0.5 27 -2.8 79 79 NW 10 17 30.18 1022 10 16.0934 0 0
1:55 am 01:55 Partly Cloudy 33 0.5 27 -2.8 79 79 WNW 13 20 30.18 1022 10 16.0934 0 0
2:15 am 02:15 Partly Cloudy 33 0.3 27 -2.8 80 80 WNW 10 17 30.21 1023 10 16.0934 0 0
2:35 am 02:35 Mostly Cloudy 33 0.8 28 -2.5 79 79 WNW 13 20 30.18 1022 10 16.0934 0 0
2:55 am 02:55 Cloudy 35 1.5 28 -2.2 77 77 NW 9 15 30.21 1023 10 16.0934 0 0
3:15 am 03:15 Cloudy 35 1.5 28 -2.1 77 77 WNW 12 19 30.21 1023 10 16.0934 0 0
3:35 am 03:35 Cloudy 35 1.5 28 -2 78 78 WNW 12 19 30.21 1023 10 16.0934 0 0
3:55 am 03:55 Cloudy 36 2 28 -2 75 75 WNW 12 19 30.15 1021 10 16.0934 0 0
4:15 am 04:15 Cloudy 36 2.2 29 -1.9 75 75 WNW 12 19 30.15 1021 10 16.0934 0 0
4:35 am 04:35 Cloudy 36 2.1 27 -2.6 71 71 WNW 18 30 30.15 1021 10 16.0934 0 0
4:55 am 04:55 Cloudy 35 1.6 27 -2.6 74 74 WNW 10 17 30.15 1021 10 16.0934 0 0
5:15 am 05:15 Cloudy 34 1.1 27 -2.6 77 77 WNW 6 9 30.18 1022 10 16.0934 0 0
5:35 am 05:35 Partly Cloudy 32 0.2 27 -3 79 79 WNW 9 15 30.18 1022 10 16.0934 0 0
5:55 am 05:55 Clear 32 0 26 -3.2 79 79 WNW 9 15 30.15 1021 10 16.0934 0 0
6:15 am 06:15 Clear 33 0.7 26 -3.1 76 76 WNW 13 20 30.15 1021 10 16.0934 0 0
6:35 am 06:35 Clear 34 0.9 26 -3.3 74 74 WNW 13 20 30.18 1022 10 16.0934 0 0
6:55 am 06:55 Clear 34 1.1 26 -3.5 72 72 WNW 13 20 30.18 1022 10 16.0934 0 0
7:15 am 07:15 Clear 34 1 26 -3.6 72 72 WNW 13 20 30.18 1022 10 16.0934 0 0
7:35 am 07:35 Clear 34 1.1 26 -3.6 71 71 WNW 16 26 30.18 1022 10 16.0934 0 0
7:55 am 07:55 Sunny 34 1.3 25 -3.7 70 70 WNW 17 28 30.15 1021 10 16.0934 0 0
8:15 am 08:15 Sunny 35 1.5 26 -3.6 69 69 WNW 17 28 30.15 1021 10 16.0934 0 0
8:35 am 08:35 Sunny 37 2.6 26 -3.5 64 64 WNW 20 31 30.15 1021 10 16.0934 0 0
8:55 am 08:55 Sunny 38 3.4 26 -3.5 61 61 WNW 21 33 30.12 1020 10 16.0934 0 0
9:15 am 09:15 Sunny 39 3.8 26 -3.5 59 59 WNW 23 37 30.15 1021 10 16.0934 0 0
9:35 am 09:35 Sunny 40 4.3 26 -3.1 59 59 WNW 20 31 30.12 1020 10 16.0934 0 0
9:55 am 09:55 Sunny 41 5.1 27 -3 56 56 WNW 22 35 30.12 1020 10 16.0934 0 0
10:15 am 10:15 Sunny 43 6 27 -2.9 53 53 WNW 24 39 30.15 1021 10 16.0934 0 0
10:35 am 10:35 Sunny 44 6.8 27 -2.7 51 51 NW 20 31 30.15 1021 10 16.0934 0 0
10:55 am 10:55 Sunny 46 7.5 28 -2.3 50 50 WNW 21 33 30.15 1021 10 16.0934 0 0
11:15 am 11:15 Sunny 47 8.1 28 -2.2 49 49 WNW 21 33 30.12 1020 10 16.0934 0 0
11:35 am 11:35 Sunny 50 9.8 28 -2.4 43 43 NW 24 39 30.12 1020 10 16.0934 0 0
11:55 am 11:55 Sunny 51 10.5 26 -3.2 38 38 NW 24 39 30.12 1020 10 16.0934 0 0
12:15 pm 12:15 Sunny 52 11.2 26 -3.2 37 37 NW 26 43 30.09 1019 10 16.0934 0 0
12:35 pm 12:35 Sunny 53 11.5 25 -3.8 34 34 NNW 26 43 30.09 1019 10 16.0934 0 0
12:55 pm 12:55 Sunny 53 11.5 25 -4 34 34 NNW 31 50 30.09 1019 10 16.0934 0 0
1:15 pm 13:15 Sunny 54 12.1 26 -3.1 35 35 NNW 24 39 30.09 1019 10 16.0934 0 0
1:35 pm 13:35 Sunny 51 10.6 25 -3.9 36 36 NNW 20 31 30.06 1018 10 16.0934 0 0
1:55 pm 13:55 Sunny 51 10.8 25 -4.1 35 35 NNW 24 39 30.06 1018 10 16.0934 0 0
2:15 pm 14:15 Sunny 52 11.1 24 -4.7 33 33 NNW 31 50 30.06 1018 10 16.0934 0 0
2:35 pm 14:35 Sunny 52 11 24 -4.3 34 34 NNW 24 39 30.06 1018 10 16.0934 0 0
2:55 pm 14:55 Sunny 51 10.7 25 -3.8 36 36 NNW 17 28 30.06 1018 10 16.0934 0 0
3:15 pm 15:15 Sunny 51 10.6 24 -4.2 35 35 NNW 17 28 30.12 1020 10 16.0934 0 0
3:35 pm 15:35 Sunny 52 10.9 25 -4.1 35 35 NNW 13 20 30.09 1019 10 16.0934 0 0
3:55 pm 15:55 Sunny 51 10.5 26 -3.4 38 38 NW 12 19 30.12 1020 10 16.0934 0 0
4:15 pm 16:15 Sunny 51 10.8 26 -3.4 37 37 NW 10 17 30.12 1020 10 16.0934 0 0
4:35 pm 16:35 Sunny 51 10.5 28 -2.2 41 41 WNW 9 15 30.12 1020 10 16.0934 0 0
4:55 pm 16:55 Sunny 49 9.7 29 -1.7 45 45 WNW 9 15 30.12 1020 10 16.0934 0 0
5:15 pm 17:15 Sunny 47 8.4 27 -2.6 46 46 WNW 10 17 30.12 1020 10 16.0934 0 0
5:35 pm 17:35 Sunny 45 7.3 25 -4.1 45 45 NW 9 15 30.15 1021 10 16.0934 0 0
5:55 pm 17:55 Clear 40 4.5 25 -4 54 54 WNW 10 17 30.18 1022 10 16.0934 0 0
6:15 pm 18:15 Clear 39 4.1 25 -4 56 56 WNW 12 19 30.18 1022 10 16.0934 0 0
6:35 pm 18:35 Clear 39 3.8 25 -4 57 57 WNW 9 15 30.18 1022 10 16.0934 0 0
6:55 pm 18:55 Clear 39 3.7 26 -3.6 59 59 WNW 12 19 30.18 1022 10 16.0934 0 0
7:15 pm 19:15 Clear 41 4.9 26 -3.5 55 55 WNW 13 20 30.15 1021 10 16.0934 0 0
7:35 pm 19:35 Clear 40 4.7 26 -3.3 57 57 WNW 12 19 30.15 1021 10 16.0934 0 0
7:55 pm 19:55 Clear 39 3.8 26 -3.1 61 61 WNW 12 19 30.18 1022 10 16.0934 0 0
8:15 pm 20:15 Clear 38 3.4 26 -3.2 62 62 WNW 8 13 30.18 1022 10 16.0934 0 0
8:35 pm 20:35 Clear 38 3.6 26 -3.2 61 61 WNW 10 17 30.18 1022 10 16.0934 0 0
8:55 pm 20:55 Clear 37 3 26 -3.1 65 65 WNW 12 19 30.15 1021 10 16.0934 0 0
9:15 pm 21:15 Clear 37 2.5 26 -3.2 66 66 WNW 12 19 30.15 1021 10 16.0934 0 0
9:35 pm 21:35 Clear 37 2.5 26 -3.2 66 66 WNW 10 17 30.15 1021 10 16.0934 0 0
9:55 pm 21:55 Clear 35 1.9 26 -3.2 69 69 WNW 9 15 30.15 1021 10 16.0934 0 0
10:15 pm 22:15 Clear 34 1 26 -3.2 74 74 WNW 9 15 30.12 1020 10 16.0934 0 0
10:35 pm 22:35 Clear 33 0.7 26 -3.1 76 76 WNW 9 15 30.15 1021 10 16.0934 0 0
10:55 pm 22:55 Clear 33 0.5 26 -3.1 77 77 WNW 9 15 30.15 1021 10 16.0934 0 0
11:15 pm 23:15 Clear 32 0 26 -3.2 79 79 WNW 9 15 30.15 1021 10 16.0934 0 0
11:35 pm 23:35 Clear 30 -1 25 -3.7 82 82 WNW 8 13 30.15 1021 10 16.0934 0 0
11:55 pm 23:55 Clear 31 -0.8 26 -3.5 82 82 WNW 7 11 30.15 1021 10 16.0934 0 0

Powered by AerisWeather